Location: ??
(35.4032°N, 139.3073°E)
Time: 03:27:12
(UTC+00:00)

Nadezhda 4 Rocket - Pass Details

Date: 13 April 2024
Orbit: 950 x 991 km, 82.9° (Epoch: 25 May)

Event Time Altitude Azimuth Distance (km) Brightness Sun altitude
Exits shadow 17:03:01 56° 44° (NE) 1,127 4.5 -34.4°
Drops below altitude 10° 17:07:59 10° 12° (NNE) 2,682 6.9 -33.6°
Sets 17:10:30 0° 10° (N) 3,629 7.7 -33.3°
